Location: Caserta
(41.0670°N, 14.3330°E)
Time: 22:51:21
(UTC+02:00)

STARLINK-1352 - Visible Passes

Search period start: 25 September 2020 00:00
Search period end: 05 October 2020 00:00
Orbit: 548 x 550 km, 53.0° (Epoch: 25 September)

Date Brightness Start Highest point End Pass type
(mag) Time Alt. Az. Time Alt. Az. Time Alt. Az.
25 Sep 5.4 05:31:20 10° S 05:34:52 28° SE 05:38:25 10° ENE visible
26 Sep 4.8 05:26:18 16° SSW 05:29:14 38° SE 05:33:05 10° ENE visible
27 Sep 4.2 05:21:41 26° SSW 05:23:43 52° SE 05:27:45 10° ENE visible
28 Sep 3.7 05:17:02 42° SSW 05:18:18 73° SE 05:22:26 10° NE visible
29 Sep 3.5 05:12:21 62° WSW 05:13:01 84° NW 05:17:11 10° NE visible
30 Sep 3.6 05:07:41 62° NW 05:07:50 63° NW 05:11:58 10° NE visible
01 Oct 4.1 05:03:00 48° NNW 05:03:00 48° NNW 05:06:48 10° NE visible
02 Oct 4.6 04:58:21 36° N 04:58:21 36° N 05:01:44 10° NE visible
03 Oct 5.0 04:53:45 29° N 04:53:45 29° N 04:56:43 10° NE visible
03 Oct 5.8 06:31:03 10° NW 06:33:39 16° N 06:36:15 10° NE visible
04 Oct 5.4 04:49:11 24° N 04:49:11 24° N 04:51:48 10° NE visible
04 Oct 5.9 06:26:29 10° NW 06:29:02 16° N 06:31:34 10° NE visible
